Previsão horária em Aberen

Hoje, 25 Janeiro, Segunda-feira

Tempo Temperatura Precipitação Vento Pressão Humidade
00:00 -2°C° 0.1 mm 1 m/s 702 mmHg 75%
01:00 -2°C° 0 mm 1 m/s 701 mmHg 77%
02:00 -2°C° 0.3 mm 1 m/s 701 mmHg 81%
03:00 -2°C° 0.3 mm 1 m/s 701 mmHg 84%
04:00 -2°C° 0.3 mm 1 m/s 701 mmHg 88%
05:00 -1°C° 0.6 mm 1 m/s 701 mmHg 91%
06:00 -3°C° 0.6 mm 2 m/s 701 mmHg 93%
07:00 -2°C° 0 mm 2 m/s 701 mmHg 96%
08:00 -2°C° 0.6 mm 2 m/s 702 mmHg 93%
09:00 -1°C° 0.6 mm 2 m/s 702 mmHg 90%
10:00 -1°C° 0.6 mm 3 m/s 703 mmHg 87%
11:00 -1°C° 0.2 mm 3 m/s 703 mmHg 85%
12:00 0°C° 0.2 mm 3 m/s 703 mmHg 82%
13:00 0°C° 0 mm 3 m/s 704 mmHg 80%
14:00 -1°C° 0.3 mm 2 m/s 704 mmHg 84%
15:00 -1°C° 0.3 mm 2 m/s 705 mmHg 88%
16:00 -1°C° 0.3 mm 2 m/s 705 mmHg 93%
17:00 -2°C° 0.5 mm 2 m/s 706 mmHg 93%
18:00 -3°C° 0.5 mm 2 m/s 707 mmHg 94%
19:00 -4°C° 0.5 mm 2 m/s 708 mmHg 94%
20:00 -3°C° 0.5 mm 2 m/s 709 mmHg 95%
21:00 -3°C° 0.5 mm 2 m/s 709 mmHg 95%
22:00 -3°C° 0.5 mm 2 m/s 710 mmHg 95%
23:00 -4°C° 0.3 mm 2 m/s 711 mmHg 96%

Amanhã, 26 Janeiro, Terça-feira

Tempo Temperatura Precipitação Vento Pressão Humidade
00:00 -4°C° 0.3 mm 2 m/s 711 mmHg 96%
01:00 -4°C° 0.3 mm 2 m/s 712 mmHg 96%
02:00 -4°C° 0.1 mm 2 m/s 712 mmHg 96%
03:00 -4°C° 0.1 mm 2 m/s 713 mmHg 95%
04:00 -5°C° 0.1 mm 2 m/s 714 mmHg 95%
05:00 -5°C° 0.1 mm 2 m/s 714 mmHg 95%
06:00 -5°C° 0.1 mm 2 m/s 714 mmHg 94%
07:00 -6°C° 0.1 mm 2 m/s 715 mmHg 93%
08:00 -5°C° 0 mm 2 m/s 715 mmHg 91%
09:00 -4°C° 0 mm 2 m/s 715 mmHg 89%
10:00 -4°C° 0 mm 2 m/s 716 mmHg 87%
11:00 -4°C° 0 mm 3 m/s 716 mmHg 83%
12:00 -2°C° 0 mm 3 m/s 716 mmHg 80%
13:00 -1°C° 0 mm 3 m/s 716 mmHg 77%
14:00 -1°C° 0 mm 3 m/s 716 mmHg 80%
15:00 -1°C° 0 mm 2 m/s 716 mmHg 83%
16:00 -1°C° 0 mm 2 m/s 716 mmHg 87%
17:00 -1°C° 0 mm 1 m/s 716 mmHg 87%
18:00 -2°C° 0 mm 1 m/s 716 mmHg 88%
19:00 -4°C° 0 mm 1 m/s 717 mmHg 88%
20:00 -4°C° 0 mm 1 m/s 717 mmHg 86%
21:00 -6°C° 0 mm 1 m/s 717 mmHg 84%
22:00 -6°C° 0 mm 1 m/s 717 mmHg 82%
23:00 -6°C° 0 mm 1 m/s 717 mmHg 81%

Depois de amanhã, 27 Janeiro, Quarta-feira

Tempo Temperatura Precipitação Vento Pressão Humidade
00:00 -6°C° 0 mm 1 m/s 717 mmHg 79%
01:00 -6°C° 0 mm 1 m/s 717 mmHg 78%
02:00 -4°C° 0 mm 1 m/s 716 mmHg 77%
03:00 -4°C° 0 mm 1 m/s 716 mmHg 77%
04:00 -3°C° 0 mm 1 m/s 715 mmHg 77%
05:00 -3°C° 0 mm 1 m/s 715 mmHg 76%
06:00 -3°C° 0 mm 1 m/s 715 mmHg 75%
07:00 -3°C° 0 mm 1 m/s 715 mmHg 75%
08:00 -2°C° 0 mm 1 m/s 714 mmHg 76%
09:00 -1°C° 0 mm 1 m/s 714 mmHg 77%
10:00 0°C° 0 mm 1 m/s 714 mmHg 79%
11:00 0°C° 0.5 mm 1 m/s 714 mmHg 84%
12:00 +1°C° 0.5 mm 1 m/s 714 mmHg 89%
13:00 +1°C° 0.5 mm 1 m/s 713 mmHg 94%
14:00 +1°C° 1 mm 1 m/s 713 mmHg 95%
15:00 +2°C° 1 mm 1 m/s 713 mmHg 96%
16:00 +2°C° 1 mm 1 m/s 712 mmHg 97%
17:00 +2°C° 1.3 mm 1 m/s 712 mmHg 98%
18:00 +2°C° 1.3 mm 1 m/s 712 mmHg 98%
19:00 +3°C° 1.3 mm 1 m/s 713 mmHg 99%
20:00 +3°C° 1 mm 1 m/s 713 mmHg 99%
21:00 +3°C° 1 mm 1 m/s 713 mmHg 99%
22:00 +4°C° 1 mm 1 m/s 713 mmHg 99%
23:00 +4°C° 1 mm 1 m/s 713 mmHg 99%

28 Janeiro, Quinta-feira

Tempo Temperatura Precipitação Vento Pressão Humidade
00:00 +4°C° 1 mm 1 m/s 713 mmHg 99%
01:00 +3°C° 1 mm 2 m/s 712 mmHg 99%
02:00 +3°C° 0.9 mm 2 m/s 712 mmHg 99%
03:00 +3°C° 0.9 mm 2 m/s 712 mmHg 99%
04:00 +3°C° 0.9 mm 2 m/s 711 mmHg 99%
05:00 +3°C° 1.6 mm 2 m/s 711 mmHg 99%
06:00 +3°C° 1.6 mm 2 m/s 710 mmHg 99%
07:00 +3°C° 1.6 mm 2 m/s 710 mmHg 99%
08:00 +4°C° 2.4 mm 2 m/s 710 mmHg 99%
09:00 +4°C° 2.4 mm 2 m/s 709 mmHg 99%
10:00 +4°C° 2.4 mm 2 m/s 709 mmHg 99%
11:00 +4°C° 1.7 mm 3 m/s 709 mmHg 98%
12:00 +4°C° 1.7 mm 3 m/s 708 mmHg 98%
13:00 +4°C° 1.7 mm 3 m/s 708 mmHg 98%
14:00 +4°C° 2.8 mm 3 m/s 708 mmHg 98%
15:00 +4°C° 2.8 mm 3 m/s 708 mmHg 98%
16:00 +5°C° 2.8 mm 3 m/s 707 mmHg 98%
17:00 +5°C° 2.1 mm 3 m/s 708 mmHg 98%
18:00 +5°C° 2.1 mm 3 m/s 708 mmHg 98%
19:00 +5°C° 2.1 mm 3 m/s 709 mmHg 97%
20:00 +5°C° 0.6 mm 3 m/s 709 mmHg 97%
21:00 +5°C° 0.6 mm 3 m/s 709 mmHg 97%
22:00 +5°C° 0.6 mm 3 m/s 709 mmHg 96%
23:00 +5°C° 0.3 mm 3 m/s 709 mmHg 96%

29 Janeiro, Sexta-feira

Tempo Temperatura Precipitação Vento Pressão Humidade
00:00 +5°C° 0.3 mm 3 m/s 709 mmHg 96%
01:00 +5°C° 0.3 mm 3 m/s 709 mmHg 95%
02:00 +5°C° 0.6 mm 3 m/s 708 mmHg 95%
03:00 +5°C° 0.6 mm 3 m/s 708 mmHg 95%
04:00 +5°C° 0.6 mm 3 m/s 707 mmHg 95%
05:00 +5°C° 1.1 mm 4 m/s 707 mmHg 95%
06:00 +5°C° 1.1 mm 4 m/s 707 mmHg 95%
07:00 +5°C° 1.1 mm 4 m/s 707 mmHg 95%
08:00 +5°C° 0.9 mm 3 m/s 707 mmHg 96%
09:00 +5°C° 0.9 mm 3 m/s 707 mmHg 96%
10:00 +6°C° 0.9 mm 2 m/s 707 mmHg 97%
11:00 +6°C° 1 mm 2 m/s 707 mmHg 97%
12:00 +6°C° 1 mm 2 m/s 707 mmHg 97%
13:00 +6°C° 1 mm 2 m/s 707 mmHg 97%
14:00 +6°C° 1.5 mm 2 m/s 706 mmHg 97%
15:00 +5°C° 1.5 mm 2 m/s 706 mmHg 96%
16:00 +4°C° 1.5 mm 3 m/s 706 mmHg 96%
17:00 +4°C° 0.9 mm 3 m/s 706 mmHg 96%
18:00 +3°C° 0.9 mm 3 m/s 707 mmHg 95%
19:00 +3°C° 0.9 mm 3 m/s 707 mmHg 95%
20:00 +3°C° 0.3 mm 3 m/s 707 mmHg 93%
21:00 +3°C° 0.3 mm 3 m/s 708 mmHg 92%
22:00 +3°C° 0.3 mm 3 m/s 708 mmHg 90%
23:00 +3°C° 0.3 mm 3 m/s 708 mmHg 91%

30 Janeiro, Sábado

Tempo Temperatura Precipitação Vento Pressão Humidade
00:00 +3°C° 0.3 mm 3 m/s 708 mmHg 91%
01:00 +3°C° 0.3 mm 3 m/s 708 mmHg 92%
02:00 +4°C° 0.3 mm 2 m/s 708 mmHg 92%
03:00 +3°C° 0.3 mm 2 m/s 707 mmHg 92%
04:00 +3°C° 0.3 mm 2 m/s 707 mmHg 92%
05:00 +3°C° 0.2 mm 2 m/s 707 mmHg 92%
06:00 +3°C° 0.2 mm 2 m/s 707 mmHg 92%
07:00 +3°C° 0.2 mm 2 m/s 707 mmHg 92%
08:00 +3°C° 0.4 mm 2 m/s 707 mmHg 93%
09:00 +4°C° 0.4 mm 2 m/s 707 mmHg 93%
10:00 +5°C° 0.4 mm 1 m/s 707 mmHg 94%
11:00 +5°C° 0.1 mm 1 m/s 706 mmHg 93%
12:00 +6°C° 0.1 mm 1 m/s 706 mmHg 91%
13:00 +7°C° 0.1 mm 1 m/s 706 mmHg 90%
14:00 +7°C° 0.1 mm 1 m/s 706 mmHg 91%
15:00 +6°C° 0.1 mm 1 m/s 706 mmHg 91%
16:00 +6°C° 0.1 mm 1 m/s 706 mmHg 92%
17:00 +5°C° 0.1 mm 1 m/s 707 mmHg 92%
18:00 +5°C° 0.1 mm 1 m/s 708 mmHg 91%
19:00 +4°C° 0.1 mm 1 m/s 708 mmHg 91%
20:00 +4°C° 0.1 mm 1 m/s 709 mmHg 91%
21:00 +4°C° 0.1 mm 1 m/s 709 mmHg 92%
22:00 +4°C° 0.1 mm 1 m/s 709 mmHg 92%
23:00 +3°C° 0 mm 1 m/s 709 mmHg 92%
Mostrar mais